{"data":{"norad_id":58079,"intl_designator":"2023-160E","name":"STARLINK-30598","alt_names":[],"object_type":"PAYLOAD","status":"ACTIVE","operator":null,"country":"US","launch_date":"2023-10-18","launch_site_code":"AFETR","launch_vehicle":null,"mission":null,"orbit_class":"UNKNOWN","rcs_meters":null,"size_class":null,"mass_kg":null,"dimensions":null,"purposes":["comms"],"wikipedia_slug":null,"has_3d_model":false,"image_url":null,"decayed_at":null,"tle_current":{"epoch":"2026-05-24T23:29:36.662784Z","epoch_age_seconds":87242,"freshness":"FRESH","line1":"1 58079U 23160E   26144.97889656  .00000799  00000+0  38529-4 0  9991","line2":"2 58079  43.0040   7.0150 0001073 278.5571  81.5160 15.27588291144616","mean_motion":15.27588291,"eccentricity":0.0001073,"inclination_deg":43.004,"raan_deg":7.015,"arg_perigee_deg":278.5571,"mean_anomaly_deg":81.516,"bstar":3.8529e-5,"rev_number":14461,"period_min":94.266237079975,"perigee_km":482.28806731101,"apogee_km":483.76047251953,"semimajor_km":6861.1612699153,"source":"CELESTRAK","updated_at":"2026-05-25T13:38:18.520963Z"}}}